sat.trackr.live / text

‹ back to catalog

STARLINK-5533

NORAD 56355 · 2023-058AQ

PAYLOAD ACTIVE UNKNOWN

§ Identity

Operator
Country
US
Launch date
2023-04-27
Launch site
AFWTR
Launch vehicle
Mass (kg)
RCS (m²)

Purposes: comms

External: N2YO · Heavens-Above · Gunter

§ Orbital elements

Epoch: 2026-08-28T11:57:10.090080Z

Period
87.28 min
Inclination
97.5031°
Eccentricity
0.0014040
Mean motion
16.49931564 rev/d
Perigee alt
130.4 km
Apogee alt
148.7 km
Semi-major
6,517.7 km
B*
1.4496e-4
RAAN
248.6111°
Arg perigee
243.3442°
Mean anomaly
116.6425°
Rev number
18,464

§ Raw data

STARLINK-55331 56355U 23058AQ  26240.49803345  .13578375  26805-5  14496-3 0  99942 56355  97.5031 248.6111 0014040 243.3442 116.6425 16.49931564184641

JSON: /api/v1/satellites/56355 · /tle

For live sub-satellite position, see the globe view (requires WebGL).

§ Visibility from observer

Set your observer location to see the next 7 days of passes ≥ 10°. The values pass through the URL so the page stays shareable.

No JS? Fill the form by hand. The geolocation button needs JavaScript.